This is the latest recevied weather packets stored in our database for station/object WW5JC. If no packets are shown the sender has not sent any weather packets the latest 10 day(s).
| Time | Temp. | Humidity | Pressure | Rain* | Wind** | Luminosity | Snow |
|---|---|---|---|---|---|---|---|
| 1777419640 | 25.56° C | 90% | 1011.7 hPa | 0 mm | - | 100 W/m² | - |
| 1777419339 | 25.56° C | 90% | 1012 hPa | 0 mm | - | 118 W/m² | - |
| 1777419037 | 25.56° C | 90% | 1011.9 hPa | 0 mm | - | 93 W/m² | - |
| 1777418737 | 25.56° C | 90% | 1011.7 hPa | 0 mm | - | 89 W/m² | - |
| 1777418434 | 25.56° C | 90% | 1011.7 hPa | 0 mm | - | 117 W/m² | - |
| 1777418130 | 25.56° C | 90% | 1012.1 hPa | 0 mm | - | 121 W/m² | - |
| 1777417827 | 25.56° C | 90% | 1011.6 hPa | 0 mm | - | 117 W/m² | - |
| 1777417527 | 25.56° C | 92% | 1012 hPa | 0 mm | - | 140 W/m² | - |
| 1777417224 | 25.56° C | 91% | 1012 hPa | 0 mm | - | 121 W/m² | - |
| 1777416919 | 25.56° C | 91% | 1012.3 hPa | 0 mm | - | 140 W/m² | - |
| 1777416615 | 25.56° C | 92% | 1012.5 hPa | 0 mm | - | 120 W/m² | - |
| 1777416311 | 25.56° C | 92% | 1012.5 hPa | 0 mm | - | 96 W/m² | - |
| 1777416010 | 25.56° C | 92% | 1012.3 hPa | 0 mm | - | 38 W/m² | - |
| 1777415706 | 25.56° C | 92% | 1012 hPa | 0 mm | - | 70 W/m² | - |
| 1777415402 | 25.56° C | 92% | 1011.8 hPa | 0 mm | - | 65 W/m² | - |
| 1777415101 | 25.56° C | 92% | 1011.7 hPa | 0 mm | - | 121 W/m² | - |
| 1777414796 | 25.56° C | 93% | 1011.7 hPa | 0 mm | - | 77 W/m² | - |
| 1777414492 | 25° C | 92% | 1011.5 hPa | 0 mm | - | 182 W/m² | - |
| 1777414191 | 25° C | 92% | 1012.3 hPa | 0 mm | - | 79 W/m² | - |
| 1777413887 | 25° C | 93% | 1012.3 hPa | 0 mm | - | 83 W/m² | - |
| 1777413582 | 25° C | 93% | 1012.4 hPa | 0 mm | - | 34 W/m² | - |
| 1777413279 | 25° C | 93% | 1011.9 hPa | 0 mm | - | 96 W/m² | - |
| 1777412974 | 25° C | 92% | 1012.1 hPa | 0 mm | - | 60 W/m² | - |
| 1777412673 | 25° C | 92% | 1012.5 hPa | 0 mm | - | 24 W/m² | - |
| 1777412371 | 25° C | 92% | 1012.1 hPa | 0 mm | - | 36 W/m² | - |
* Rain latest hour (hover to see other rain measurements)
** Current wind speed in m/s (hover to see current wind gust speed)